Regional Weather Roundup
Issued by NWS

Home | Current Version | Previous Version | Graphics & Text | Print | Product List | Glossary On
Versions: 1 2 3 4 5 6 7 8 9 10 11 12 13 14 15 16 17 18 19 20 21 22 23 24 25 26 27 28 29 30 31 32 33 34 35 36 37 38 39 40 41 42 43 44 45 46 47 48 49 50
000
ASUS43 KDMX 290007
RWRIA

WEATHER ROUNDUP FOR IOWA
NATIONAL WEATHER SERVICE DES MOINES IA
600 PM CST WED JAN 28 2015

NOTE: "FAIR" INDICATES FEW OR NO CLOUDS BELOW 12,000 FEET WITH NO
SIGNIFICANT WEATHER AND/OR OBSTRUCTIONS TO VISIBILITY.

* - THESE STATIONS ARE NOT NWS STATIONS...THUS NOT UNDER NWS
QUALITY CONTROL.  THEY ALSO DO NOT REPORT WEATHER SUCH
AS PRECIPITATION OR FOG.

IAZ001>003-012>014-020>022-031>034-043>046-290100-
   NORTHWEST IOWA

CITY           SKY/WX    TMP DP  RH WIND       PRES   REMARKS
CARROLL *      CLEAR     39  36  87 SE7       29.68F WCI  34
CHEROKEE *     CLEAR     37  36  95 NE5       29.72R WCI  33
DENISON *      CLEAR     46  36  66 W6        29.68R
LE MARS *      CLEAR     37  36  93 CALM      29.73R
ORANGE CITY *  CLEAR     43  36  75 N3        29.73R
SHELDON *      PTCLDY    32  32 100 NE6       29.73R FOG     WCI  26
SIOUX CITY     CLEAR     41  34  76 CALM      29.72R
6HR MIN TEMP:  41; 6HR MAX TEMP:  52;

SPENCER        PTCLDY    34  30  85 N6        29.74R FOG     WCI  29
6HR MIN TEMP:  33; 6HR MAX TEMP:  37;

STORM LAKE *   CLEAR     36  34  93 N9        29.71R FOG     WCI  29
$$

IAZ055>058-069>071-079>083-090>094-290100-
   SOUTHWEST IOWA

CITY           SKY/WX    TMP DP  RH WIND       PRES   REMARKS
ATLANTIC *     CLEAR     50  37  62 CALM      29.68S
AUDUBON *      CLEAR     39  34  81 CALM      29.70S
CLARINDA *     CLEAR     57  37  47 W7        29.69R
COUNCIL BLFS * CLEAR     50  36  57 NW7       29.68R
CRESTON *      CLEAR     50  39  66 CALM      29.67S
HARLAN  *      CLEAR     41  34  75 W10       29.72S
LAMONI         MOCLDY    54  39  57 SE8       29.67S
6HR MIN TEMP:  44; 6HR MAX TEMP:  59;

RED OAK *      CLEAR     54  37  54 NW8       29.68R
SHENANDOAH *   CLEAR     54  36  50 W9        29.69R
$$

IAZ047>049-059>061-072>074-084-290100-
   CENTRAL IOWA

CITY           SKY/WX    TMP DP  RH WIND       PRES   REMARKS
AMES           CLOUDY    41  33  73 E6        29.72S
6HR MIN TEMP:  36; 6HR MAX TEMP:  46;

ANKENY *       CLEAR     43  36  75 E5        29.72R
CHARITON *     CLEAR     46  37  71 SE12      29.68S
DES MOINES     CLOUDY    50  37  61 E7        29.71R
6HR MIN TEMP:  42; 6HR MAX TEMP:  52;

GRINNELL*      CLOUDY    39  34  81 SE6       29.75R WCI  35
KNOXVILLE *    CLOUDY    46  36  66 SE6       29.70R
MARSHALLTOWN   CLOUDY    36  32  85 E6        29.75R WCI  31
6HR MIN TEMP:  36; 6HR MAX TEMP:  41;

PELLA *        CLOUDY    44  35  71 SE7       29.73R
PERRY *          N/A     45  37  76 E6        29.69F
$$

IAZ004>006-015-016-023>025-035-036-290100-
   NORTH CENTRAL IOWA

CITY           SKY/WX    TMP DP  RH WIND       PRES   REMARKS
ALGONA *       CLEAR     36  36 100 SE9       29.71F FOG     WCI  29
CLARION *      CLEAR     36  36 100 SE10      29.72F WCI  28
ESTHERVILLE    CLOUDY    32  30  92 NW3       29.75R FOG
6HR MIN TEMP:  31; 6HR MAX TEMP:  33;

FORT DODGE *   CLOUDY    34  28  80 E7        29.71F WCI  28
MASON CITY     CLOUDY    34  31  88 SE10      29.75F WCI  26
6HR MIN TEMP:  31; 6HR MAX TEMP:  35; 6HR PCP: TRACE;

FOREST CITY *  CLEAR     34  32  93 SE7       29.73F FOG     WCI  28
IOWA FALLS *     N/A     36  32  87 E9        29.74F WCI  29
$$

IAZ007>011-017>019-026>030-037>042-050>054-066-290100-
   NORTHEAST IOWA

CITY           SKY/WX    TMP DP  RH WIND       PRES   REMARKS
CEDAR RAPIDS   CLOUDY    36  32  85 SE14      29.75F WCI  27
6HR MIN TEMP:  35; 6HR MAX TEMP:  39;

CHARLES CITY * CLOUDY    34  32  93 SE14      29.78F WCI  24
CLINTON *      MOCLDY    34  28  80 SE17      29.87F WCI  23
DECORAH *      CLOUDY    32  28  86 S12       29.80R WCI  23
DUBUQUE        CLOUDY    32  26  78 SE17G26   29.80F WCI  21
6HR MIN TEMP:  29; 6HR MAX TEMP:  32;

MONTICELLO *   CLEAR     34  32  93 SE15G21   29.78F WCI  24
OELWEIN *      MOCLDY    34  30  86 SE8G15    29.82R WCI  27
WATERLOO       CLOUDY    33  30  88 SE6       29.80R WCI  28
6HR MIN TEMP:  33; 6HR MAX TEMP:  37;

$$

IAZ064-065-067-068-078-290100-
   EAST CENTRAL IOWA

CITY           SKY/WX    TMP DP  RH WIND       PRES   REMARKS
DAVENPORT      CLOUDY    36  29  75 SE23      29.84F WCI  24
6HR MIN TEMP:  32; 6HR MAX TEMP:  36;

IOWA CITY      CLOUDY    36  32  85 SE12      29.79F WCI  28
6HR MIN TEMP:  34; 6HR MAX TEMP:  38;

MT. PLEASANT * CLOUDY    40  32  74 SE18G24   29.77F WCI  30
MUSCATINE *    CLEAR     39  32  75 SE13G21   29.81F WCI  32
QUAD CITIES    CLOUDY    36  30  79 SE10      29.84F WCI  28
6HR MIN TEMP:  32; 6HR MAX TEMP:  36;

$$

IAZ062-063-075>077-085>089-095>099-290100-
   SOUTHEAST IOWA

CITY           SKY/WX    TMP DP  RH WIND       PRES   REMARKS
BURLINGTON     CLOUDY    40  32  73 SE14      29.80F WCI  32
6HR MIN TEMP:  39; 6HR MAX TEMP:  44;

FAIRFIELD *    MOCLDY    41  32  70 SE16      29.75F
FORT MADISON * CLEAR     39  34  81 SE16G23   29.79F WCI  30
KEOKUK *       CLEAR     45  34  65 SE13G22   29.78F
OSKALOOSA *      N/A     39  34  81 SE16      29.72F WCI  31
CENTERVILLE *  CLEAR     46  37  71 SE12      29.70F
OTTUMWA        CLOUDY    43  34  70 SE13      29.72F
6HR MIN TEMP:  39; 6HR MAX TEMP:  46;

WASHINGTON *   PTCLDY    39  37  93 SE17      29.77F WCI  30
$$

ABBREVIATIONS USED IN REMARKS
   TC - TEMPERATURES IN CELSIUS
  WCI - WIND CHILL INDEX
   HX - HEAT INDEX
  VSB - VISIBILITY
$$



USA.gov is the U.S. government's official web portal to all federal, state and local government web resources and services.